Location: Newark
(37.8333°N, 119.5000°W)
Time: 06:08:33
(UTC+00:00)

Tiros 1 despin weight - Pass Details

Date: 29 August 2019
Orbit: 594 x 642 km, 48.2° (Epoch: 21 September)

Event Time Altitude Azimuth Distance (km) Brightness Sun altitude
Rises 03:31:53 0° 207° (SSW) 2,814 ? -11.9°
Reaches altitude 10° 03:34:22 10° 197° (SSW) 1,915 ? -12.3°
Maximum altitude 03:38:11 30° 136° (SE) 1,080 ? -13.0°
Enters shadow 03:40:29 19° 89° (E) 1,443 ? -13.4°
